Flag for U.S.A. Weather past 2 weeks in Cape Coral, Florida, U.S.A.

Now
72 °F

Sunny.


Feels Like: 76 °F
Forecast: 54 / 73 °F
Wind: 10 mph from Northwest

Location: Page Field

Current Time: Dec 18, 2014 at 3:36:41 PM

Latest Report: Dec 18, 2014 at 2:53 PM


Visibility: 10 mi

Pressure: 30.10 "Hg

Humidity: 57%

Dew point: 56 °F

Location of Cape CoralLocation

Historic Weather in Cape Coral — Graph

°F

Cape Coral temperature yesterday

Maximum temperature yesterday: 76 °F (at 11:53 AM)
Minimum temperature yesterday: 53 °F (at 1:53 AM)
Average temperature yesterday: 64 °F

Past Weeks' High & Low Weather Summary

 TemperatureHumidityPressure
High83 °F (Dec 5, 1:53 PM)100% (Dec 7, 5:53 AM)30.28 "Hg (Dec 7, 5:53 AM)
Low46 °F (Dec 15, 5:53 AM)21% (Dec 13, 2:53 PM)30.01 "Hg (Dec 8, 5:53 PM)
Average63 °F73%30.13 "Hg
* Reported Dec 3 1:53 PM — Dec 18 1:53 PM, Cape Coral, Weather by CustomWeather, © 2014

Note: Actual official high and low records may vary slightly from our data, if they occured in-between our weather recording intervals... More about our weather records

Advertising

Cape Coral weather history for previous 24 hours

 ConditionsComfort  
Time TempWeatherWind HumidityBarometerVisibility
1:53 PM
Dec 18
70 °FSunny.7 mph64%30.12 "Hg10 mi
12:53 PM69 °FPartly sunny.8 mph57%30.15 "Hg10 mi
11:53 AM67 °FOvercast.6 mph63%30.18 "Hg10 mi
10:53 AM65 °FPartly sunny.3 mph63%30.20 "Hg10 mi
9:53 AM63 °FPartly sunny.9 mph68%30.20 "Hg10 mi
8:53 AM60 °FSunny.6 mph75%30.18 "Hg10 mi
7:53 AM53 °FSunny.No wind86%30.17 "Hg10 mi
6:53 AM51 °FClear.3 mph89%30.14 "Hg10 mi
5:53 AM52 °FClear.7 mph89%30.14 "Hg10 mi
4:53 AM54 °FClear.5 mph90%30.14 "Hg10 mi
3:53 AM55 °FClear.No wind93%30.13 "Hg10 mi
2:53 AM57 °FClear.No wind87%30.14 "Hg10 mi
1:53 AM59 °FClear.No wind84%30.16 "Hg10 mi
12:53 AM61 °FClear.5 mph90%30.17 "Hg10 mi
11:53 PM
Dec 17
63 °FPassing clouds.6 mph97%30.17 "Hg10 mi
10:53 PM62 °FClear.No wind90%30.17 "Hg10 mi
9:53 PM62 °FClear.No wind86%30.15 "Hg10 mi
8:53 PM62 °FClear.No wind90%30.15 "Hg10 mi
7:53 PM65 °FClear.No wind81%30.14 "Hg10 mi
6:53 PM67 °FClear.No wind76%30.13 "Hg10 mi
5:53 PM69 °FClear.5 mph68%30.12 "Hg10 mi
4:53 PM72 °FSunny.9 mph53%30.12 "Hg10 mi
3:53 PM75 °FSunny.9 mph36%30.11 "Hg10 mi
Weather by CustomWeather, © 2014

See weather overviewHow to use our weather pages